#Datum;Uhrzeit;WR;Pac;DaySum;Status;WR;Pac;DaySum;Status;Pdc1;Udc;Temp;WR;Pac;DaySum;Status;Pdc1;Udc;Temp;WR;Pac;DaySum;Status;Pdc1;Udc;Temp;WR;Pac;DaySum;Status;Pdc1;Pdc2;Udc1;Udc2;Temp;WR;Pac;DaySum;Status;Pdc1;Pdc2;Udc1;Udc2;Temp;WR;Pac;DaySum;Status;Pdc1;Udc;Temp;WR;Pac;DaySum;Status;Pdc1;Udc;Temp;WR;Pac;DaySum;Status;Pdc1;Udc;Temp
10.12.19;23:55:00;1;521;9284;0;2;0;2198;0;0;0;0;3;0;1320;0;0;0;0;4;0;1809;0;0;0;0;5;0;5404;0;0;0;0;0;0;6;0;3974;0;0;0;0;0;0;7;0;2633;0;0;0;0;8;0;2646;0;0;0;0;9;0;1387;0;0;0;0
10.12.19;23:50:00;1;519;9240;0;2;0;2198;0;0;0;0;3;0;1320;0;0;0;0;4;0;1809;0;0;0;0;5;0;5404;0;0;0;0;0;0;6;0;3974;0;0;0;0;0;0;7;0;2633;0;0;0;0;8;0;2646;0;0;0;0;9;0;1387;0;0;0;0
10.12.19;23:45:00;1;481;9200;0;2;0;2198;0;0;0;0;3;0;1320;0;0;0;0;4;0;1809;0;0;0;0;5;0;5404;0;0;0;0;0;0;6;0;3974;0;0;0;0;0;0;7;0;2633;0;0;0;0;8;0;2646;0;0;0;0;9;0;1387;0;0;0;0
10.12.19;23:40:00;1;482;9160;0;2;0;2198;0;0;0;0;3;0;1320;0;0;0;0;4;0;1809;0;0;0;0;5;0;5404;0;0;0;0;0;0;6;0;3974;0;0;0;0;0;0;7;0;2633;0;0;0;0;8;0;2646;0;0;0;0;9;0;1387;0;0;0;0
10.12.19;23:35:00;1;483;9119;0;2;0;2198;0;0;0;0;3;0;1320;0;0;0;0;4;0;1809;0;0;0;0;5;0;5404;0;0;0;0;0;0;6;0;3974;0;0;0;0;0;0;7;0;2633;0;0;0;0;8;0;2646;0;0;0;0;9;0;1387;0;0;0;0
10.12.19;23:30:00;1;482;9079;0;2;0;2198;0;0;0;0;3;0;1320;0;0;0;0;4;0;1809;0;0;0;0;5;0;5404;0;0;0;0;0;0;6;0;3974;0;0;0;0;0;0;7;0;2633;0;0;0;0;8;0;2646;0;0;0;0;9;0;1387;0;0;0;0
10.12.19;23:25:00;1;483;9039;0;2;0;2198;0;0;0;0;3;0;1320;0;0;0;0;4;0;1809;0;0;0;0;5;0;5404;0;0;0;0;0;0;6;0;3974;0;0;0;0;0;0;7;0;2633;0;0;0;0;8;0;2646;0;0;0;0;9;0;1387;0;0;0;0
10.12.19;23:20:00;1;542;8998;0;2;0;2198;0;0;0;0;3;0;1320;0;0;0;0;4;0;1809;0;0;0;0;5;0;5404;0;0;0;0;0;0;6;0;3974;0;0;0;0;0;0;7;0;2633;0;0;0;0;8;0;2646;0;0;0;0;9;0;1387;0;0;0;0
10.12.19;23:15:00;1;573;8953;0;2;0;2198;0;0;0;0;3;0;1320;0;0;0;0;4;0;1809;0;0;0;0;5;0;5404;0;0;0;0;0;0;6;0;3974;0;0;0;0;0;0;7;0;2633;0;0;0;0;8;0;2646;0;0;0;0;9;0;1387;0;0;0;0
10.12.19;23:10:00;1;594;8904;0;2;0;2198;0;0;0;0;3;0;1320;0;0;0;0;4;0;1809;0;0;0;0;5;0;5404;0;0;0;0;0;0;6;0;3974;0;0;0;0;0;0;7;0;2633;0;0;0;0;8;0;2646;0;0;0;0;9;0;1387;0;0;0;0
10.12.19;23:05:00;1;619;8854;0;2;0;2198;0;0;0;0;3;0;1320;0;0;0;0;4;0;1809;0;0;0;0;5;0;5404;0;0;0;0;0;0;6;0;3974;0;0;0;0;0;0;7;0;2633;0;0;0;0;8;0;2646;0;0;0;0;9;0;1387;0;0;0;0
10.12.19;23:00:00;1;596;8802;0;2;0;2198;0;0;0;0;3;0;1320;0;0;0;0;4;0;1809;0;0;0;0;5;0;5404;0;0;0;0;0;0;6;0;3974;0;0;0;0;0;0;7;0;2633;0;0;0;0;8;0;2646;0;0;0;0;9;0;1387;0;0;0;0
10.12.19;22:55:00;1;586;8752;0;2;0;2198;0;0;0;0;3;0;1320;0;0;0;0;4;0;1809;0;0;0;0;5;0;5404;2;0;0;0;0;0;6;0;3974;2;0;0;0;0;0;7;0;2633;0;0;0;0;8;0;2646;0;0;0;0;9;0;1387;0;0;0;0
10.12.19;22:50:00;1;580;8703;0;2;0;2198;0;0;0;0;3;0;1320;0;0;0;0;4;0;1809;0;0;0;0;5;0;5404;2;0;0;0;0;0;6;0;3974;2;0;0;0;0;0;7;0;2633;0;0;0;0;8;0;2646;0;0;0;0;9;0;1387;0;0;0;0
10.12.19;22:45:00;1;647;8655;0;2;0;2198;0;0;0;0;3;0;1320;0;0;0;0;4;0;1809;0;0;0;0;5;0;5404;2;0;0;0;0;0;6;0;3974;2;0;0;0;0;0;7;0;2633;0;0;0;0;8;0;2646;0;0;0;0;9;0;1387;0;0;0;0
10.12.19;22:40:00;1;525;8608;0;2;0;2198;0;0;0;0;3;0;1320;0;0;0;0;4;0;1809;0;0;0;0;5;0;5404;2;0;0;0;0;0;6;0;3974;2;0;0;0;0;0;7;0;2633;0;0;0;0;8;0;2646;0;0;0;0;9;0;1387;0;0;0;0
10.12.19;22:35:00;1;523;8564;0;2;0;2198;0;0;0;0;3;0;1320;0;0;0;0;4;0;1809;0;0;0;0;5;0;5404;2;0;0;0;0;0;6;0;3974;2;0;0;0;0;0;7;0;2633;0;0;0;0;8;0;2646;0;0;0;0;9;0;1387;0;0;0;0
10.12.19;22:30:00;1;526;8520;0;2;0;2198;0;0;0;0;3;0;1320;0;0;0;0;4;0;1809;0;0;0;0;5;0;5404;2;0;0;0;0;0;6;0;3974;2;0;0;0;0;0;7;0;2633;0;0;0;0;8;0;2646;0;0;0;0;9;0;1387;0;0;0;0
10.12.19;22:25:00;1;590;8476;0;2;0;2198;0;0;0;0;3;0;1320;0;0;0;0;4;0;1809;0;0;0;0;5;0;5404;2;0;0;0;0;0;6;0;3974;2;0;0;0;0;0;7;0;2633;0;0;0;0;8;0;2646;0;0;0;0;9;0;1387;0;0;0;0
10.12.19;22:20:00;1;625;8426;0;2;0;2198;0;0;0;0;3;0;1320;0;0;0;0;4;0;1809;0;0;0;0;5;0;5404;2;0;0;0;0;0;6;0;3974;2;0;0;0;0;0;7;0;2633;0;0;0;0;8;0;2646;0;0;0;0;9;0;1387;0;0;0;0
10.12.19;22:15:00;1;610;8373;0;2;0;2198;0;0;0;0;3;0;1320;0;0;0;0;4;0;1809;0;0;0;0;5;0;5404;2;0;0;0;0;0;6;0;3974;2;0;0;0;0;0;7;0;2633;0;0;0;0;8;0;2646;0;0;0;0;9;0;1387;0;0;0;0
10.12.19;22:10:00;1;558;8322;0;2;0;2198;0;0;0;0;3;0;1320;0;0;0;0;4;0;1809;0;0;0;0;5;0;5404;2;0;0;0;0;0;6;0;3974;2;0;0;0;0;0;7;0;2633;0;0;0;0;8;0;2646;0;0;0;0;9;0;1387;0;0;0;0
10.12.19;22:05:00;1;560;8275;0;2;0;2198;0;0;0;0;3;0;1320;0;0;0;0;4;0;1809;0;0;0;0;5;0;5404;2;0;0;0;0;0;6;0;3974;2;0;0;0;0;0;7;0;2633;0;0;0;0;8;0;2646;0;0;0;0;9;0;1387;0;0;0;0
10.12.19;22:00:00;1;598;8228;0;2;0;2198;0;0;0;0;3;0;1320;0;0;0;0;4;0;1809;0;0;0;0;5;0;5404;2;0;0;0;0;0;6;0;3974;2;0;0;0;0;0;7;0;2633;0;0;0;0;8;0;2646;0;0;0;0;9;0;1387;0;0;0;0
10.12.19;21:55:00;1;578;8178;0;2;0;2198;0;0;0;0;3;0;1320;0;0;0;0;4;0;1809;0;0;0;0;5;0;5404;2;0;0;0;0;0;6;0;3974;2;0;0;0;0;0;7;0;2633;0;0;0;0;8;0;2646;0;0;0;0;9;0;1387;0;0;0;0
10.12.19;21:50:00;1;583;8130;0;2;0;2198;0;0;0;0;3;0;1320;0;0;0;0;4;0;1809;0;0;0;0;5;0;5404;2;0;0;0;0;0;6;0;3974;2;0;0;0;0;0;7;0;2633;0;0;0;0;8;0;2646;0;0;0;0;9;0;1387;0;0;0;0
10.12.19;21:45:00;1;683;8082;0;2;0;2198;0;0;0;0;3;0;1320;0;0;0;0;4;0;1809;0;0;0;0;5;0;5404;2;0;0;0;0;0;6;0;3974;2;0;0;0;0;0;7;0;2633;0;0;0;0;8;0;2646;0;0;0;0;9;0;1387;0;0;0;0
10.12.19;21:40:00;1;615;8022;0;2;0;2198;0;0;0;0;3;0;1320;0;0;0;0;4;0;1809;0;0;0;0;5;0;5404;2;0;0;0;0;0;6;0;3974;2;0;0;0;0;0;7;0;2633;0;0;0;0;8;0;2646;0;0;0;0;9;0;1387;0;0;0;0
10.12.19;21:35:00;1;327;7975;0;2;0;2198;0;0;0;0;3;0;1320;0;0;0;0;4;0;1809;0;0;0;0;5;0;5404;2;0;0;0;0;0;6;0;3974;2;0;0;0;0;0;7;0;2633;0;0;0;0;8;0;2646;0;0;0;0;9;0;1387;0;0;0;0
10.12.19;21:30:00;1;328;7947;0;2;0;2198;0;0;0;0;3;0;1320;0;0;0;0;4;0;1809;0;0;0;0;5;0;5404;2;0;0;0;0;0;6;0;3974;2;0;0;0;0;0;7;0;2633;0;0;0;0;8;0;2646;0;0;0;0;9;0;1387;0;0;0;0
10.12.19;21:25:00;1;306;7920;0;2;0;2198;0;0;0;0;3;0;1320;0;0;0;0;4;0;1809;0;0;0;0;5;0;5404;2;0;0;0;0;0;6;0;3974;2;0;0;0;0;0;7;0;2633;0;0;0;0;8;0;2646;0;0;0;0;9;0;1387;0;0;0;0
10.12.19;21:20:00;1;346;7894;0;2;0;2198;0;0;0;0;3;0;1320;0;0;0;0;4;0;1809;0;0;0;0;5;0;5404;2;0;0;0;0;0;6;0;3974;2;0;0;0;0;0;7;0;2633;0;0;0;0;8;0;2646;0;0;0;0;9;0;1387;0;0;0;0
10.12.19;21:15:00;1;345;7865;0;2;0;2198;0;0;0;0;3;0;1320;0;0;0;0;4;0;1809;0;0;0;0;5;0;5404;2;0;0;0;0;0;6;0;3974;2;0;0;0;0;0;7;0;2633;0;0;0;0;8;0;2646;0;0;0;0;9;0;1387;0;0;0;0
10.12.19;21:10:00;1;360;7836;0;2;0;2198;0;0;0;0;3;0;1320;0;0;0;0;4;0;1809;0;0;0;0;5;0;5404;2;0;0;0;0;0;6;0;3974;2;0;0;0;0;0;7;0;2633;0;0;0;0;8;0;2646;0;0;0;0;9;0;1387;0;0;0;0
10.12.19;21:05:00;1;357;7806;0;2;0;2198;0;0;0;0;3;0;1320;0;0;0;0;4;0;1809;0;0;0;0;5;0;5404;2;0;0;0;0;0;6;0;3974;2;0;0;0;0;0;7;0;2633;0;0;0;0;8;0;2646;0;0;0;0;9;0;1387;0;0;0;0
10.12.19;21:00:00;1;351;7776;0;2;0;2198;0;0;0;0;3;0;1320;0;0;0;0;4;0;1809;0;0;0;0;5;0;5404;2;0;0;0;0;0;6;0;3974;2;0;0;0;0;0;7;0;2633;0;0;0;0;8;0;2646;0;0;0;0;9;0;1387;0;0;0;0
10.12.19;20:55:00;1;350;7747;0;2;0;2198;0;0;0;0;3;0;1320;0;0;0;0;4;0;1809;0;0;0;0;5;0;5404;2;0;0;0;0;0;6;0;3974;2;0;0;0;0;0;7;0;2633;0;0;0;0;8;0;2646;0;0;0;0;9;0;1387;0;0;0;0
10.12.19;20:50:00;1;372;7718;0;2;0;2198;0;0;0;0;3;0;1320;0;0;0;0;4;0;1809;0;0;0;0;5;0;5404;2;0;0;0;0;0;6;0;3974;2;0;0;0;0;0;7;0;2633;0;0;0;0;8;0;2646;0;0;0;0;9;0;1387;0;0;0;0
10.12.19;20:45:00;1;326;7686;0;2;0;2198;0;0;0;0;3;0;1320;0;0;0;0;4;0;1809;0;0;0;0;5;0;5404;2;0;0;0;0;0;6;0;3974;2;0;0;0;0;0;7;0;2633;0;0;0;0;8;0;2646;0;0;0;0;9;0;1387;0;0;0;0
10.12.19;20:40:00;1;351;7659;0;2;0;2198;0;0;0;0;3;0;1320;0;0;0;0;4;0;1809;0;0;0;0;5;0;5404;2;0;0;0;0;0;6;0;3974;2;0;0;0;0;0;7;0;2633;0;0;0;0;8;0;2646;0;0;0;0;9;0;1387;0;0;0;0
10.12.19;20:35:00;1;571;7629;0;2;0;2198;0;0;0;0;3;0;1320;0;0;0;0;4;0;1809;0;0;0;0;5;0;5404;2;0;0;0;0;0;6;0;3974;2;0;0;0;0;0;7;0;2633;0;0;0;0;8;0;2646;0;0;0;0;9;0;1387;0;0;0;0
10.12.19;20:30:00;1;685;7579;0;2;0;2198;0;0;0;0;3;0;1320;0;0;0;0;4;0;1809;0;0;0;0;5;0;5404;2;0;0;0;0;0;6;0;3974;2;0;0;0;0;0;7;0;2633;0;0;0;0;8;0;2646;0;0;0;0;9;0;1387;0;0;0;0
10.12.19;20:25:00;1;739;7520;0;2;0;2198;0;0;0;0;3;0;1320;0;0;0;0;4;0;1809;0;0;0;0;5;0;5404;2;0;0;0;0;0;6;0;3974;2;0;0;0;0;0;7;0;2633;0;0;0;0;8;0;2646;0;0;0;0;9;0;1387;0;0;0;0
10.12.19;20:20:00;1;693;7462;0;2;0;2198;0;0;0;0;3;0;1320;0;0;0;0;4;0;1809;0;0;0;0;5;0;5404;2;0;0;0;0;0;6;0;3974;2;0;0;0;0;0;7;0;2633;0;0;0;0;8;0;2646;0;0;0;0;9;0;1387;0;0;0;0
10.12.19;20:15:00;1;571;7403;0;2;0;2198;0;0;0;0;3;0;1320;0;0;0;0;4;0;1809;0;0;0;0;5;0;5404;2;0;0;0;0;0;6;0;3974;2;0;0;0;0;0;7;0;2633;0;0;0;0;8;0;2646;0;0;0;0;9;0;1387;0;0;0;0
10.12.19;20:10:00;1;582;7360;0;2;0;2198;0;0;0;0;3;0;1320;0;0;0;0;4;0;1809;0;0;0;0;5;0;5404;2;0;0;0;0;0;6;0;3974;2;0;0;0;0;0;7;0;2633;0;0;0;0;8;0;2646;0;0;0;0;9;0;1387;0;0;0;0
10.12.19;20:05:00;1;629;7312;0;2;0;2198;0;0;0;0;3;0;1320;0;0;0;0;4;0;1809;0;0;0;0;5;0;5404;2;0;0;0;0;0;6;0;3974;2;0;0;0;0;0;7;0;2633;0;0;0;0;8;0;2646;0;0;0;0;9;0;1387;0;0;0;0
10.12.19;20:00:00;1;800;7258;0;2;0;2198;0;0;0;0;3;0;1320;0;0;0;0;4;0;1809;0;0;0;0;5;0;5404;2;0;0;0;0;0;6;0;3974;2;0;0;0;0;0;7;0;2633;0;0;0;0;8;0;2646;0;0;0;0;9;0;1387;0;0;0;0
10.12.19;19:55:00;1;1109;7187;0;2;0;2198;0;0;0;0;3;0;1320;0;0;0;0;4;0;1809;0;0;0;0;5;0;5404;2;0;0;0;0;0;6;0;3974;2;0;0;0;0;0;7;0;2633;0;0;0;0;8;0;2646;0;0;0;0;9;0;1387;0;0;0;0
10.12.19;19:50:00;1;996;7094;0;2;0;2198;0;0;0;0;3;0;1320;0;0;0;0;4;0;1809;0;0;0;0;5;0;5404;2;0;0;0;0;0;6;0;3974;2;0;0;0;0;0;7;0;2633;0;0;0;0;8;0;2646;0;0;0;0;9;0;1387;0;0;0;0
10.12.19;19:45:00;1;790;7013;0;2;0;2198;0;0;0;0;3;0;1320;0;0;0;0;4;0;1809;0;0;0;0;5;0;5404;2;0;0;0;0;0;6;0;3974;2;0;0;0;0;0;7;0;2633;0;0;0;0;8;0;2646;0;0;0;0;9;0;1387;0;0;0;0
10.12.19;19:40:00;1;744;6950;0;2;0;2198;0;0;0;0;3;0;1320;0;0;0;0;4;0;1809;0;0;0;0;5;0;5404;2;0;0;0;0;0;6;0;3974;2;0;0;0;0;0;7;0;2633;0;0;0;0;8;0;2646;0;0;0;0;9;0;1387;0;0;0;0
10.12.19;19:35:00;1;707;6864;0;2;0;2198;0;0;0;0;3;0;1320;0;0;0;0;4;0;1809;0;0;0;0;5;0;5404;2;0;0;0;0;0;6;0;3974;2;0;0;0;0;0;7;0;2633;0;0;0;0;8;0;2646;0;0;0;0;9;0;1387;0;0;0;0
10.12.19;19:30:00;1;692;6804;0;2;0;2198;0;0;0;0;3;0;1320;0;0;0;0;4;0;1809;0;0;0;0;5;0;5404;2;0;0;0;0;0;6;0;3974;2;0;0;0;0;0;7;0;2633;0;0;0;0;8;0;2646;0;0;0;0;9;0;1387;0;0;0;0
10.12.19;19:25:00;1;1970;6736;0;2;0;2198;0;0;0;0;3;0;1320;0;0;0;0;4;0;1809;0;0;0;0;5;0;5404;2;0;0;0;0;0;6;0;3974;2;0;0;0;0;0;7;0;2633;0;0;0;0;8;0;2646;0;0;0;0;9;0;1387;0;0;0;0
10.12.19;19:20:00;1;2808;6558;0;2;0;2198;0;0;0;0;3;0;1320;0;0;0;0;4;0;1809;0;0;0;0;5;0;5404;2;0;0;0;0;0;6;0;3974;2;0;0;0;0;0;7;0;2633;0;0;0;0;8;0;2646;0;0;0;0;9;0;1387;0;0;0;0
10.12.19;19:15:00;1;3205;6320;0;2;0;2198;0;0;0;0;3;0;1320;0;0;0;0;4;0;1809;0;0;0;0;5;0;5404;2;0;0;0;0;0;6;0;3974;2;0;0;0;0;0;7;0;2633;0;0;0;0;8;0;2646;0;0;0;0;9;0;1387;0;0;0;0
10.12.19;19:10:00;1;323;6081;0;2;0;2198;0;0;0;0;3;0;1320;0;0;0;0;4;0;1809;0;0;0;0;5;0;5404;2;0;0;0;0;0;6;0;3974;2;0;0;0;0;0;7;0;2633;0;0;0;0;8;0;2646;0;0;0;0;9;0;1387;0;0;0;0
10.12.19;19:05:00;1;360;6055;0;2;0;2198;0;0;0;0;3;0;1320;0;0;0;0;4;0;1809;0;0;0;0;5;0;5404;2;0;0;0;0;0;6;0;3974;2;0;0;0;0;0;7;0;2633;0;0;0;0;8;0;2646;0;0;0;0;9;0;1387;0;0;0;0
10.12.19;19:00:00;1;392;6024;0;2;0;2198;0;0;0;0;3;0;1320;0;0;0;0;4;0;1809;0;0;0;0;5;0;5404;2;0;0;0;0;0;6;0;3974;2;0;0;0;0;0;7;0;2633;0;0;0;0;8;0;2646;0;0;0;0;9;0;1387;0;0;0;0
10.12.19;18:55:00;1;398;5991;0;2;0;2198;0;0;0;0;3;0;1320;0;0;0;0;4;0;1809;0;0;0;0;5;0;5404;2;0;0;0;0;0;6;0;3974;2;0;0;0;0;0;7;0;2633;0;0;0;0;8;0;2646;0;0;0;0;9;0;1387;0;0;0;0
10.12.19;18:50:00;1;345;5958;0;2;0;2198;0;0;0;0;3;0;1320;0;0;0;0;4;0;1809;0;0;0;0;5;0;5404;2;0;0;0;0;0;6;0;3974;2;0;0;0;0;0;7;0;2633;0;0;0;0;8;0;2646;0;0;0;0;9;0;1387;0;0;0;0
10.12.19;18:45:00;1;350;5929;0;2;0;2198;0;0;0;0;3;0;1320;0;0;0;0;4;0;1809;0;0;0;0;5;0;5404;2;0;0;0;0;0;6;0;3974;2;0;0;0;0;0;7;0;2633;0;0;0;0;8;0;2646;0;0;0;0;9;0;1387;0;0;0;0
10.12.19;18:40:00;1;346;5900;0;2;0;2198;0;0;0;0;3;0;1320;0;0;0;0;4;0;1809;0;0;0;0;5;0;5404;2;0;0;0;0;0;6;0;3974;2;0;0;0;0;0;7;0;2633;0;0;0;0;8;0;2646;0;0;0;0;9;0;1387;0;0;0;0
10.12.19;18:35:00;1;345;5871;0;2;0;2198;0;0;0;0;3;0;1320;0;0;0;0;4;0;1809;0;0;0;0;5;0;5404;2;0;0;0;0;0;6;0;3974;2;0;0;0;0;0;7;0;2633;0;0;0;0;8;0;2646;0;0;0;0;9;0;1387;0;0;0;0
10.12.19;18:30:00;1;347;5842;0;2;0;2198;0;0;0;0;3;0;1320;0;0;0;0;4;0;1809;0;0;0;0;5;0;5404;2;0;0;0;0;0;6;0;3974;2;0;0;0;0;0;7;0;2633;0;0;0;0;8;0;2646;0;0;0;0;9;0;1387;0;0;0;0
10.12.19;18:25:00;1;284;5814;0;2;0;2198;0;0;0;0;3;0;1320;0;0;0;0;4;0;1809;0;0;0;0;5;0;5404;2;0;0;0;0;0;6;0;3974;2;0;0;0;0;0;7;0;2633;0;0;0;0;8;0;2646;0;0;0;0;9;0;1387;0;0;0;0
10.12.19;18:20:00;1;284;5790;0;2;0;2198;0;0;0;0;3;0;1320;0;0;0;0;4;0;1809;0;0;0;0;5;0;5404;2;0;0;0;0;0;6;0;3974;2;0;0;0;0;0;7;0;2633;0;0;0;0;8;0;2646;0;0;0;0;9;0;1387;0;0;0;0
10.12.19;18:15:00;1;316;5766;0;2;0;2198;0;0;0;0;3;0;1320;0;0;0;0;4;0;1809;0;0;0;0;5;0;5404;2;0;0;0;0;0;6;0;3974;2;0;0;0;0;0;7;0;2633;0;0;0;0;8;0;2646;0;0;0;0;9;0;1387;0;0;0;0
10.12.19;18:10:00;1;327;5739;0;2;0;2198;0;0;0;0;3;0;1320;0;0;0;0;4;0;1809;0;0;0;0;5;0;5404;2;0;0;0;0;0;6;0;3974;2;0;0;0;0;0;7;0;2633;0;0;0;0;8;0;2646;0;0;0;0;9;0;1387;0;0;0;0
10.12.19;18:05:00;1;333;5712;0;2;0;2198;0;0;0;0;3;0;1320;0;0;0;0;4;0;1809;0;0;0;0;5;0;5404;2;0;0;0;0;0;6;0;3974;2;0;0;0;0;0;7;0;2633;0;0;0;0;8;0;2646;0;0;0;0;9;0;1387;0;0;0;0
10.12.19;18:00:00;1;307;5684;0;2;0;2198;0;0;0;0;3;0;1320;0;0;0;0;4;0;1809;0;0;0;0;5;0;5404;2;0;0;0;0;0;6;0;3974;2;0;0;0;0;0;7;0;2633;0;0;0;0;8;0;2646;0;0;0;0;9;0;1387;0;0;0;0
10.12.19;17:55:00;1;293;5658;0;2;0;2198;0;0;0;0;3;0;1320;0;0;0;0;4;0;1809;0;0;0;0;5;0;5404;2;0;0;0;0;0;6;0;3974;2;0;0;0;0;0;7;0;2633;0;0;0;0;8;0;2646;0;0;0;0;9;0;1387;0;0;0;0
10.12.19;17:50:00;1;298;5633;0;2;0;2198;0;0;0;0;3;0;1320;0;0;0;0;4;0;1809;0;0;0;0;5;0;5404;2;0;0;0;0;0;6;0;3974;2;0;0;0;0;0;7;0;2633;0;0;0;0;8;0;2646;0;0;0;0;9;0;1387;0;0;0;0
10.12.19;17:45:00;1;287;5608;0;2;0;2198;0;0;0;0;3;0;1320;0;0;0;0;4;0;1809;0;0;0;0;5;0;5404;2;0;0;0;0;0;6;0;3974;2;0;0;0;0;0;7;0;2633;0;0;0;0;8;0;2646;0;0;0;0;9;0;1387;0;0;0;0
10.12.19;17:40:00;1;288;5584;0;2;0;2198;0;0;0;0;3;0;1320;0;0;0;0;4;0;1809;0;0;0;0;5;0;5404;2;0;0;0;0;0;6;0;3974;2;0;0;0;0;0;7;0;2633;0;0;0;0;8;0;2646;0;0;0;0;9;0;1387;0;0;0;0
10.12.19;17:35:00;1;287;5560;0;2;0;2198;0;0;0;0;3;0;1320;0;0;0;0;4;0;1809;0;0;0;0;5;0;5404;2;0;0;0;0;0;6;0;3974;2;0;0;0;0;0;7;0;2633;0;0;0;0;8;0;2646;0;0;0;0;9;0;1387;0;0;0;0
10.12.19;17:30:00;1;288;5536;0;2;0;2198;0;0;0;0;3;0;1320;0;0;0;0;4;0;1809;0;0;0;0;5;0;5404;2;0;0;0;0;0;6;0;3974;2;0;0;0;0;0;7;0;2633;0;0;0;0;8;0;2646;0;0;0;0;9;0;1387;0;0;0;0
10.12.19;17:25:00;1;317;5512;0;2;0;2198;0;0;0;0;3;0;1320;0;0;0;0;4;0;1809;0;0;0;0;5;0;5404;2;0;0;0;0;0;6;0;3974;2;0;0;0;0;0;7;0;2633;0;0;0;0;8;0;2646;0;0;0;0;9;0;1387;0;0;0;0
10.12.19;17:20:00;1;330;5486;0;2;0;2198;0;0;0;0;3;0;1320;0;0;0;0;4;0;1809;0;0;0;0;5;0;5404;2;0;0;0;0;0;6;0;3974;2;0;0;0;0;0;7;0;2633;0;0;0;0;8;0;2646;0;0;0;0;9;0;1387;0;0;0;0
10.12.19;17:15:00;1;336;5458;0;2;0;2198;0;0;0;0;3;0;1320;0;0;0;0;4;0;1809;0;0;0;0;5;0;5404;2;0;0;0;0;0;6;0;3974;2;0;0;0;0;0;7;0;2633;0;0;0;0;8;0;2646;0;0;0;0;9;0;1387;0;0;0;0
10.12.19;17:10:00;1;324;5430;0;2;0;2198;0;0;0;0;3;0;1320;0;0;0;0;4;0;1809;0;0;0;0;5;0;5404;2;0;0;0;0;0;6;0;3974;2;0;0;0;0;0;7;0;2633;0;0;0;0;8;0;2646;0;0;0;0;9;0;1387;0;0;0;0
10.12.19;17:05:00;1;309;5403;0;2;0;2198;0;0;0;0;3;0;1320;0;0;0;0;4;0;1809;0;0;0;0;5;0;5404;2;0;0;0;0;0;6;0;3974;2;0;0;0;0;0;7;0;2633;0;0;0;0;8;0;2646;0;0;0;0;9;0;1387;0;0;0;0
10.12.19;17:00:00;1;284;5377;0;2;0;2198;0;0;0;0;3;0;1320;0;0;0;0;4;0;1809;0;0;0;0;5;0;5404;2;0;0;0;0;0;6;0;3974;2;0;0;0;0;0;7;0;2633;0;0;0;0;8;0;2646;0;0;0;0;9;0;1387;0;0;0;0
10.12.19;16:55:00;1;301;5353;0;2;0;2198;0;0;0;0;3;0;1320;0;0;0;0;4;0;1809;0;0;0;0;5;0;5404;2;0;0;0;0;0;6;0;3974;2;0;0;0;0;0;7;0;2633;0;0;0;0;8;0;2646;0;0;0;0;9;0;1387;0;0;0;0
10.12.19;16:50:00;1;343;5328;0;2;0;2198;0;0;0;0;3;0;1320;0;0;0;0;4;0;1809;0;0;0;0;5;0;5404;2;0;0;0;0;0;6;0;3974;2;0;0;0;0;0;7;0;2633;0;0;0;0;8;0;2646;0;0;0;0;9;0;1387;0;0;0;0
10.12.19;16:45:00;1;342;5299;0;2;0;2198;0;0;0;0;3;0;1320;0;0;0;0;4;0;1809;0;0;0;0;5;0;5404;2;0;0;0;0;0;6;0;3974;2;0;0;0;0;0;7;0;2633;0;0;0;0;8;0;2646;0;0;0;0;9;0;1387;0;0;0;0
10.12.19;16:40:00;1;345;5270;0;2;0;2198;0;0;0;0;3;0;1320;0;0;35;2;4;0;1809;0;0;0;0;5;0;5404;2;0;0;0;0;0;6;0;3974;2;0;0;0;0;0;7;0;2633;0;0;0;0;8;0;2646;0;0;0;0;9;0;1387;0;0;0;0
10.12.19;16:35:00;1;344;5241;0;2;0;2198;0;0;176;7;3;0;1320;6;0;286;14;4;0;1809;0;0;10;1;5;0;5404;2;0;0;0;0;0;6;0;3974;2;0;0;0;0;0;7;0;2633;0;0;0;0;8;0;2646;0;0;0;0;9;0;1387;0;0;0;0
10.12.19;16:30:00;1;343;5213;0;2;0;2198;6;0;301;11;3;0;1320;6;0;345;14;4;0;1809;2;0;82;9;5;0;5404;2;0;0;0;0;0;6;0;3974;1;0;0;0;0;1;7;0;2633;0;0;0;0;8;0;2646;0;0;0;0;9;0;1387;0;0;0;0
10.12.19;16:25:00;1;393;5184;0;2;0;2198;6;0;329;11;3;0;1320;6;0;400;14;4;0;1809;1;0;108;9;5;0;5404;2;0;0;188;187;12;6;0;3974;1;2;1;71;131;10;7;0;2633;0;0;0;0;8;0;2646;0;0;0;0;9;0;1387;0;0;154;6
10.12.19;16:20:00;1;377;5151;0;2;0;2198;6;0;354;11;3;0;1320;4;2;412;14;4;0;1809;1;0;136;10;5;0;5404;26;0;0;375;404;21;6;0;3974;23;7;3;180;480;20;7;0;2633;6;0;272;14;8;0;2646;6;0;276;14;9;0;1387;6;0;297;10
10.12.19;16:15:00;1;315;5121;0;2;0;2198;6;0;369;11;3;0;1320;3;4;420;14;4;0;1809;1;0;159;10;5;0;5404;23;0;1;397;430;22;6;0;3974;23;6;3;201;527;20;7;0;2633;6;0;309;15;8;0;2646;6;0;313;14;9;0;1387;6;0;328;10
10.12.19;16:10:00;1;295;5095;0;2;0;2198;6;0;385;11;3;0;1320;6;2;462;14;4;0;1809;1;0;186;10;5;0;5404;26;0;0;415;599;22;6;0;3974;23;8;6;499;253;20;7;0;2633;6;0;363;15;8;0;2646;6;0;367;14;9;0;1387;6;0;385;10
10.12.19;16:05:00;1;244;5069;0;2;0;2198;6;0;391;11;3;0;1320;6;2;470;14;4;0;1809;1;0;199;10;5;5;5403;4;0;1;409;640;22;6;0;3974;23;6;3;343;410;21;7;0;2633;6;0;390;15;8;0;2646;6;0;394;14;9;0;1387;3;0;408;11
10.12.19;16:00:00;1;213;5050;0;2;0;2198;6;0;398;11;3;1;1320;6;3;476;14;4;0;1809;1;0;213;11;5;9;5403;4;0;1;414;645;22;6;0;3974;23;8;2;321;574;21;7;0;2633;6;0;415;15;8;0;2646;6;0;333;12;9;0;1387;6;0;413;11
10.12.19;15:55:00;1;230;5032;0;2;0;2198;6;0;406;11;3;1;1320;6;3;491;14;4;0;1809;1;0;226;11;5;11;5402;4;0;2;420;666;23;6;0;3974;23;4;3;514;583;22;7;0;2633;3;0;420;15;8;0;2646;4;0;428;15;9;0;1387;6;0;458;11
10.12.19;15:50:00;1;299;5011;0;2;0;2198;6;0;411;12;3;1;1319;6;3;500;14;4;0;1809;3;0;212;11;5;68;5401;4;10;15;380;604;24;6;0;3974;23;4;3;467;588;22;7;0;2633;6;1;439;15;8;0;2646;3;3;426;15;9;1;1387;6;1;482;11
10.12.19;15:45:00;1;333;4986;0;2;2;2198;6;7;408;12;3;2;1319;3;5;508;14;4;0;1809;3;0;207;12;5;92;5395;4;25;28;379;604;24;6;57;3973;4;22;25;451;454;23;7;0;2633;6;4;454;16;8;3;2646;6;10;431;15;9;4;1387;6;4;471;11
10.12.19;15:40:00;1;342;4958;0;2;12;2198;4;19;404;12;3;2;1319;6;7;526;15;4;7;1809;3;7;199;12;5;124;5387;4;44;41;380;604;24;6;78;3968;4;45;46;451;454;23;7;2;2633;6;5;474;16;8;2;2646;6;6;479;15;9;0;1386;6;3;527;11
10.12.19;15:35:00;1;343;4930;0;2;47;2197;4;70;351;12;3;4;1319;6;10;529;15;4;7;1808;3;7;199;12;5;153;5377;4;56;57;380;604;24;6;95;3961;4;50;54;451;454;23;7;2;2633;6;10;481;16;8;5;2646;6;9;485;16;9;2;1386;4;6;532;11
10.12.19;15:30:00;1;324;4901;0;2;56;2193;4;80;366;13;3;5;1319;6;9;534;15;4;22;1807;3;23;199;12;5;170;5364;4;67;58;380;604;23;6;110;3953;4;56;56;451;454;23;7;8;2632;6;10;494;16;8;6;2646;6;10;321;10;9;5;1386;3;12;520;11
10.12.19;15:25:00;1;301;4874;0;2;65;2188;4;90;368;13;3;4;1318;6;11;533;15;4;33;1806;3;34;198;12;5;190;5349;4;81;71;380;604;23;6;121;3944;4;58;67;451;454;23;7;26;2632;4;47;238;9;8;41;2645;6;59;395;16;9;11;1385;6;20;510;11
10.12.19;15:20:00;1;300;4849;0;2;87;2183;4;114;366;13;3;6;1318;6;12;548;15;4;44;1803;3;46;198;12;5;238;5333;4;109;96;380;604;23;6;153;3933;4;66;71;451;454;23;7;70;2628;4;100;411;16;8;66;2642;4;100;424;16;9;6;1384;6;9;558;12
10.12.19;15:15:00;1;300;4824;0;2;141;2176;4;168;379;13;3;78;1317;4;114;489;16;4;98;1799;3;102;217;12;5;338;5313;4;160;140;384;604;23;6;215;3920;4;90;92;451;454;23;7;139;2622;4;176;459;16;8;111;2636;4;141;370;12;9;50;1384;6;66;537;12
10.12.19;15:10:00;1;300;4799;0;2;246;2164;4;277;386;13;3;147;1311;4;186;497;16;4;203;1791;5;211;231;12;5;558;5283;4;274;236;405;644;23;6;341;3901;4;168;168;451;454;23;7;275;2611;4;307;467;16;8;226;2625;4;255;393;13;9;144;1380;4;173;524;12
10.12.19;15:05:00;1;302;4774;0;2;258;2143;4;288;392;13;3;154;1299;4;194;518;16;4;210;1774;5;218;237;12;5;560;5236;4;284;236;406;621;23;6;352;3872;4;191;195;451;454;23;7;266;2588;4;297;476;16;8;272;2602;4;302;476;16;9;148;1368;4;175;520;12
10.12.19;15:00:00;1;300;4749;0;2;197;2122;4;226;383;13;3;115;1286;4;153;511;16;4;151;1756;5;157;229;12;5;433;5190;4;214;182;389;604;23;6;280;3843;4;135;139;450;454;23;7;178;2566;4;210;473;16;8;183;2580;4;219;467;16;9;98;1355;4;125;496;12
10.12.19;14:55:00;1;308;4724;0;2;166;2105;4;194;386;13;3;98;1276;4;135;488;16;4;119;1744;5;124;227;12;5;368;5155;4;177;158;380;604;23;6;240;3820;4;120;125;450;454;23;7;145;2551;4;178;474;16;8;149;2564;4;188;465;16;9;82;1347;4;109;502;12
10.12.19;14:50:00;1;340;4697;0;2;144;2091;4;171;384;13;3;82;1268;4;118;476;16;4;102;1734;5;106;223;12;5;334;5124;4;160;140;380;604;23;6;218;3800;4;112;114;451;454;23;7;136;2539;4;166;447;16;8;136;2552;4;172;446;16;9;71;1340;4;96;469;12
10.12.19;14:45:00;1;340;4669;0;2;145;2079;4;174;386;13;3;86;1261;4;121;468;16;4;106;1725;5;110;222;12;5;341;5097;4;170;142;380;604;23;6;220;3782;4;119;124;451;454;23;7;128;2528;4;170;454;16;8;141;2540;4;173;457;16;9;73;1334;4;96;477;12
10.12.19;14:40:00;1;344;4640;0;2;156;2067;4;185;390;13;3;91;1254;4;125;501;16;4;115;1716;5;120;228;12;5;369;5068;4;180;157;379;604;23;6;240;3764;4;113;121;451;454;23;7;131;2517;4;167;453;16;8;133;2529;4;170;455;16;9;73;1328;4;96;472;12
10.12.19;14:35:00;1;340;4611;0;2;161;2054;4;187;386;13;3;90;1246;4;132;508;16;4;119;1707;5;124;224;12;5;374;5037;4;183;158;380;604;23;6;244;3744;4;122;128;451;454;23;7;130;2506;4;166;443;16;8;124;2517;4;161;471;16;9;42;1322;4;58;517;12
10.12.19;14:30:00;1;359;4582;0;2;149;2041;4;175;373;13;3;83;1239;4;121;496;16;4;104;1697;5;108;226;12;5;345;5006;4;172;145;380;604;23;6;228;3723;4;124;132;451;454;23;7;127;2495;4;157;454;16;8;120;2507;4;157;465;16;9;22;1319;6;29;551;12
10.12.19;14:25:00;1;361;4552;0;2;148;2028;4;175;389;13;3;85;1232;4;119;496;16;4;105;1688;5;110;225;12;5;346;4977;4;169;146;380;604;23;6;224;3705;4;107;111;451;454;23;7;72;2485;4;94;278;10;8;122;2497;4;156;479;16;9;57;1317;6;74;500;12
10.12.19;14:20:00;1;360;4522;0;2;153;2016;4;184;379;13;3;84;1224;4;119;520;16;4;115;1679;5;120;230;12;5;353;4949;4;171;153;380;604;23;6;230;3686;4;129;137;451;454;23;7;87;2475;4;126;374;13;8;122;2487;4;156;473;16;9;26;1312;4;35;418;9
10.12.19;14:15:00;1;362;4492;0;2;133;2003;4;160;374;14;3;74;1217;4;114;500;16;4;87;1670;3;91;199;12;5;320;4919;4;155;132;380;604;23;6;206;3667;4;101;107;451;454;23;7;66;2462;0;82;275;10;8;110;2477;4;144;434;16;9;11;1309;6;15;561;12
10.12.19;14:10:00;1;364;4462;0;2;186;1992;4;216;387;14;3;111;1211;4;148;497;16;4;140;1662;5;146;226;12;5;427;4892;4;205;178;399;618;24;6;295;3649;4;141;153;481;532;23;7;142;2454;0;177;356;13;8;176;2468;4;206;418;16;9;73;1309;4;94;393;10
10.12.19;14:05:00;1;364;4431;0;2;237;1977;4;265;387;14;3;141;1202;4;178;491;16;4;184;1651;5;191;231;12;5;522;4856;4;264;222;399;614;24;6;397;3624;4;201;198;574;560;23;7;232;2444;4;270;458;17;8;234;2453;4;271;465;16;9;123;1301;4;150;519;13
10.12.19;14:00:00;1;356;4401;0;2;323;1957;4;358;398;14;3;196;1190;4;236;496;16;4;273;1636;5;284;235;12;5;709;4810;4;353;295;414;683;24;6;528;3589;4;269;268;594;570;23;7;285;2425;4;311;400;14;8;343;2434;4;384;471;16;9;186;1291;4;215;518;13
10.12.19;13:55:00;1;344;4371;0;2;368;1930;4;402;403;14;3;225;1174;4;266;502;16;4;308;1613;5;320;238;12;5;772;4752;4;392;330;422;660;24;6;577;3545;4;287;300;587;573;23;7;383;2396;4;423;475;17;8;381;2405;4;421;474;16;9;204;1275;4;236;524;13
10.12.19;13:50:00;1;345;4343;0;2;385;1899;4;419;400;14;3;236;1155;4;282;514;16;4;334;1587;5;348;236;12;5;847;4686;4;427;359;422;678;24;6;624;3496;4;317;318;562;569;23;7;397;2364;4;436;483;17;8;395;2373;4;441;485;16;9;218;1258;4;249;528;13
10.12.19;13:45:00;1;349;4314;0;2;310;1867;4;346;395;14;3;189;1136;4;231;518;16;4;257;1559;5;267;237;12;5;660;4616;4;323;281;402;656;24;6;494;3445;4;252;250;552;568;23;7;317;2331;4;360;487;17;8;265;2341;4;296;383;12;9;179;1240;4;211;526;13
10.12.19;13:40:00;1;313;4285;0;2;266;1842;4;295;383;14;3;160;1120;4;199;520;16;4;212;1538;5;221;233;12;5;574;4562;4;284;242;412;629;24;6;430;3405;4;225;235;600;560;23;7;270;2304;4;305;481;17;8;268;2313;4;309;484;16;9;149;1226;4;177;516;13